[[{"header":{"parameterUnit":"m.s-1","parameterCategory":1,"la1":30.2991,"la2":30.254,"lo1":-89.0895,"lo2":-89.0444,"dy":0.0017,"dx":0.0017,"nx":28,"ny":28,"refTime":"2023-09-29T09:00:00:Z","depth":0,"parameterNumber":2,"parameterNumberName":"U-component_of_WINDS"},"data":[0,0,0,0,0,0,0,0,0,0,0,0,0,0,0,0,0,0,0,0,0,0,0,0,0,0,0,0,0,0,0,0,0,0,0,0,0,0,0,0,0,0,0,0,0,0,0,0,0,0,0,0,0,0,0,0,0,0,-2.8591,-2.8591,0,-2.8629,-2.863,-2.863,-2.8497,-2.8493,-2.8489,-2.8486,-2.8528,-2.8533,-2.8537,0,0,0,0,0,0,0,0,0,0,0,0,0,-2.8404,-2.8408,-2.8591,-2.8591,-2.8592,-2.8629,-2.863,-2.863,-2.8498,-2.8493,-2.8488,-2.8484,-2.8526,-2.8532,-2.8538,0,0,0,0,0,0,0,0,0,0,0,0,0,-2.8468,-2.8409,-2.8591,-2.853,-2.8525,-2.8629,-2.863,-2.863,-2.8499,-2.8493,-2.8487,-2.8481,-2.8524,-2.8531,-2.8539,-2.8703,0,0,-2.8561,-2.8564,0,0,0,0,0,0,0,0,-2.8465,-2.8475,-2.8539,-2.8534,-2.8529,-2.8552,-2.8579,-2.8655,-2.8501,-2.8509,-2.8485,-2.8479,-2.8541,-2.8547,-2.8567,-2.8705,-2.8707,-2.8561,-2.8566,-2.8569,-2.8571,0,0,0,0,0,0,0,-2.846,-2.8473,-2.8606,-2.854,-2.8534,-2.8501,-2.8504,-2.8593,-2.8558,-2.8508,-2.8498,-2.8505,-2.8537,-2.856,-2.8567,-2.8708,-2.8561,-2.8568,-2.8572,-2.8575,-2.8984,-2.899,0,0,0,0,0,0,-2.8464,-2.847,-2.8605,-2.8607,-2.8481,-2.851,-2.8512,-2.8551,-2.8557,-2.8552,-2.851,-2.8498,-2.8551,-2.8559,-2.8568,-2.8763,-2.8569,-2.8576,-2.858,-2.8977,-2.8985,-2.8992,0,0,0,0,0,0,-2.846,-2.8477,-2.8603,-2.8536,-2.8549,-2.8519,-2.8564,-2.8555,-2.8578,-2.8558,-2.8552,-2.854,-2.8546,-2.8558,-2.8671,-2.8762,-2.8579,-2.8586,-2.897,-2.898,-2.8989,-2.9153,0,0,0,0,0,0,-2.8455,-2.8476,-2.8539,-2.8538,-2.8554,-2.8706,-2.8569,-2.856,-2.859,-2.8576,-2.8585,-2.858,-2.8543,-2.8661,-2.8678,-2.8769,-2.8591,-2.8961,-2.8974,-2.8986,-2.9139,-2.9167,-2.9191,0,0,0,0,0,-2.8449,-2.8584,-2.8543,-2.856,-2.8631,-2.8711,-2.872,-2.8673,-2.8598,-2.8661,-2.8648,-2.858,-2.8748,-2.8673,-2.8692,-2.8786,-2.8955,-2.897,-2.8985,-2.9128,-2.9162,-2.919,0,0,0,0,0,0,-2.8597,-2.8583,-2.8537,-2.8675,-2.8695,-2.8688,-2.8766,-2.871,-2.8753,-2.8737,-2.8678,-2.8681,-2.8805,-2.8806,-2.8722,-2.8946,-2.8839,-2.8858,-2.8942,-2.8974,-2.8999,-2.8998,-2.8597,0,0,0,0,0,-2.8646,-2.8712,-2.8695,-2.8819,-2.8831,-2.8797,-2.883,-2.8792,-2.8811,-2.8819,-2.8814,-2.8836,-2.8893,-2.8933,-2.8985,-2.9137,-2.9138,-2.9211,-2.9237,-2.9258,-2.9277,-2.9358,-2.9391,-2.904,-2.904,-2.904,0,0,-2.8748,-2.8748,-2.8793,-2.8849,-2.886,-2.893,-2.8806,-2.8885,-2.8937,-2.8831,-2.8938,-2.8935,-2.8955,-2.9089,-2.9148,-2.9094,-2.9373,-2.9277,-2.9294,-2.9301,-2.9377,-2.941,-2.944,-2.905,-2.9048,-2.9047,0,0,-2.8969,-2.8975,-2.9079,-2.9092,-2.911,-2.9086,-2.9111,-2.9112,-2.9106,-2.9212,-2.9134,-2.9195,-2.9295,-2.9313,-2.9335,-2.9561,-2.9501,-2.9579,-2.9716,-2.9796,-2.9824,-2.9848,-2.9931,-2.9961,-2.9597,-2.9597,-2.9597,0,-2.9094,-2.9196,-2.914,-2.9225,-2.9253,-2.9158,-2.9264,-2.9279,-2.9314,-2.9335,-2.9273,-2.9397,-2.9403,-2.9541,-2.9596,-2.9616,-2.9644,-2.958,-2.9824,-2.9848,-2.987,-2.9948,-2.9979,-2.9607,-2.9606,-2.9605,-2.9604,0,-2.935,-2.9422,-2.9504,-2.9538,-2.9574,-2.9669,-2.9628,-2.9671,-2.9629,-2.9612,-2.9721,-2.9725,-2.9776,-2.9805,-2.9765,-2.9937,-2.9903,-2.9834,-2.9726,-2.9914,-2.9987,-3.0016,-2.9621,-2.9617,-2.9614,-2.9612,0,0,-2.967,-2.967,-2.9702,-2.9716,-2.9728,-2.9783,-2.9873,-2.9922,-2.9961,-2.9987,-3.0062,-3.0148,-3.0084,-3.0109,-3.0069,-3.014,-3.0321,-3.0061,-3.0061,-3.0112,-3.0513,-3.0568,-3.0603,-3.0279,-3.0285,-3.0289,-3.0512,0,-2.989,-3.0044,-2.9996,-3.0152,-3.0219,-3.0129,-3.0207,-3.0223,-3.0209,-3.0263,-3.0247,-3.031,-3.0219,-3.0233,-3.0298,-3.0286,-3.0401,-3.0268,-3.0351,-3.0355,-3.0353,-3.0641,-3.0699,-3.091,-3.054,-3.0545,-3.0548,0,-3.0168,-3.0204,-3.0368,-3.0367,-3.0393,-3.0465,-3.0506,-3.0558,-3.0574,-3.0559,-3.0586,-3.0532,-3.0621,-3.051,-3.0633,-3.0543,-3.0573,-3.0572,-3.0579,-3.0588,-3.0466,-3.0661,-3.0975,-3.1009,-3.0592,-3.0588,-3.0585,0,-3.0389,-3.0477,-3.0587,-3.0602,-3.0604,-3.0656,-3.066,-3.0669,-3.0702,-3.0737,-3.0758,-3.0804,-3.083,-3.0866,-3.0826,-3.0749,-3.0956,-3.0841,-3.0947,-3.0949,-3.0999,-3.0997,-3.1326,-3.1013,-3.1012,-3.1012,-3.1011,0,-3.0641,-3.0746,-3.0686,-3.0754,-3.0868,-3.081,-3.0924,-3.0917,-3.0926,-3.0992,-3.0915,-3.0978,-3.0919,-3.0977,-3.0946,-3.1053,-3.1065,-3.1056,-3.1047,-3.1065,-3.1067,-3.1087,-3.1073,-3.102,-3.1018,-3.1017,-3.1015,0,-3.0909,-3.0873,-3.0986,-3.0978,-3.0978,-3.1063,-3.1056,-3.1118,-3.1097,-3.1181,-3.1197,-3.1164,-3.1228,-3.119,-3.1256,-3.1234,-3.1375,-3.1345,-3.1371,-3.1364,-3.1473,-3.1465,-3.183,-3.1876,-3.1531,-3.1534,-3.1537,0,-3.1075,-3.1153,-3.1152,-3.119,-3.1198,-3.126,-3.1292,-3.1237,-3.1274,-3.1297,-3.1358,-3.1414,-3.1458,-3.1564,-3.1547,-3.1596,-3.1568,-3.1693,-3.1576,-3.1591,-3.1574,-3.1571,-3.158,-3.1718,-3.1722,-3.1725,-3.1728,0,-3.1374,-3.1351,-3.14,-3.1444,-3.1484,-3.1516,-3.1541,-3.1577,-3.1522,-3.1567,-3.1631,-3.1665,-3.173,-3.1789,-3.183,-3.1834,-3.1774,-3.1764,-3.1792,-3.1813,-3.1826,-3.1823,-3.1439,-3.1757,-3.1754,-3.1752,-3.175,-3.1749,-3.1597,-3.1662,-3.1672,-3.173,-3.1742,-3.1767,-3.1826,-3.1811,-3.1863,-3.1913,-3.1876,-3.1953,-3.1965,-3.2015,-3.2026,-3.2086,-3.2036,-3.2075,-3.2086,-3.2098,-3.2114,-3.1813,-3.2093,-3.2092,-3.2091,-3.209,-3.2089,0,-3.1894,-3.1895,-3.1949,-3.1986,-3.2031,-3.1967,-3.1991,-3.2034,-3.2102,-3.2118,-3.2162,-3.2235,-3.2291,-3.2277,-3.2327,-3.2378,-3.2351,-3.2393,-3.2391,-3.2393,-3.2155,-3.2127,-3.2414,-3.2414,-3.2413,-3.2413,-3.2413,-3.2413,-3.2055,-3.2162,-3.2141,-3.2254,-3.2254,-3.2328,-3.2348,-3.237,-3.2383,-3.2469,-3.2514,-3.2504,-3.2509,-3.2558,-3.2607,-3.2601,-3.2625,-3.2678,-3.2663,-3.2441,-3.2409,-3.2379,-3.2353,-3.2682,-3.2683,-3.2896,-3.2898,-3.2899]},{"header":{"parameterUnit":"m.s-1","parameterCategory":1,"la1":30.2991,"la2":30.254,"lo1":-89.0895,"lo2":-89.0444,"dy":0.0017,"dx":0.0017,"nx":28,"ny":28,"refTime":"2023-09-29T09:00:00:Z","depth":0,"parameterNumber":3,"parameterNumberName":"V-component_of_WINDS"},"data":[0,0,0,0,0,0,0,0,0,0,0,0,0,0,0,0,0,0,0,0,0,0,0,0,0,0,0,0,0,0,0,0,0,0,0,0,0,0,0,0,0,0,0,0,0,0,0,0,0,0,0,0,0,0,0,0,0,0,-3.4247,-3.4248,0,-3.4304,-3.4305,-3.4305,-3.4284,-3.4283,-3.4282,-3.4281,-3.4334,-3.4337,-3.4339,0,0,0,0,0,0,0,0,0,0,0,0,0,-3.4115,-3.4118,-3.4247,-3.4248,-3.4249,-3.4304,-3.4305,-3.4305,-3.4285,-3.4283,-3.4282,-3.428,-3.4333,-3.4336,-3.4339,0,0,0,0,0,0,0,0,0,0,0,0,0,-3.4172,-3.4119,-3.4247,-3.4245,-3.4245,-3.4304,-3.4305,-3.4306,-3.4285,-3.4283,-3.4281,-3.4279,-3.4332,-3.4336,-3.434,-3.4402,0,0,-3.4352,-3.4354,0,0,0,0,0,0,0,0,-3.4169,-3.4177,-3.4245,-3.4245,-3.4246,-3.4285,-3.4278,-3.4338,-3.4285,-3.427,-3.4281,-3.4278,-3.4319,-3.4324,-3.4339,-3.4405,-3.4407,-3.4352,-3.4355,-3.4356,-3.4357,0,0,0,0,0,0,0,-3.4165,-3.4174,-3.4269,-3.4246,-3.4246,-3.4239,-3.4245,-3.4289,-3.4304,-3.4271,-3.427,-3.4277,-3.4319,-3.4335,-3.434,-3.4408,-3.4352,-3.4356,-3.4358,-3.436,-3.4525,-3.4527,0,0,0,0,0,0,-3.4162,-3.4171,-3.4268,-3.4271,-3.4202,-3.4243,-3.425,-3.4274,-3.4304,-3.4307,-3.4278,-3.4276,-3.4329,-3.4335,-3.4342,-3.4415,-3.4356,-3.436,-3.4362,-3.4523,-3.4526,-3.4528,0,0,0,0,0,0,-3.4159,-3.417,-3.4265,-3.4221,-3.4233,-3.4248,-3.4275,-3.4277,-3.4292,-3.431,-3.4312,-3.4292,-3.4328,-3.4336,-3.4387,-3.4416,-3.4362,-3.4365,-3.4521,-3.4524,-3.4527,-3.4563,0,0,0,0,0,0,-3.4155,-3.417,-3.4195,-3.4222,-3.4235,-3.4312,-3.4277,-3.4279,-3.43,-3.4297,-3.4323,-3.4325,-3.4327,-3.4381,-3.4391,-3.4421,-3.4368,-3.4518,-3.4522,-3.4526,-3.4559,-3.4567,-3.4573,0,0,0,0,0,-3.415,-3.4202,-3.4196,-3.4208,-3.4267,-3.4314,-3.4321,-3.4323,-3.4302,-3.4327,-3.4337,-3.4325,-3.4412,-3.4387,-3.4397,-3.4429,-3.4516,-3.4521,-3.4526,-3.4556,-3.4565,-3.4573,0,0,0,0,0,0,-3.4176,-3.4205,-3.4199,-3.4261,-3.4285,-3.431,-3.4341,-3.4333,-3.4362,-3.4358,-3.4358,-3.4364,-3.4416,-3.4428,-3.4399,-3.449,-3.4461,-3.4468,-3.448,-3.4489,-3.4496,-3.4492,-3.4372,0,0,0,0,0,-3.419,-3.4227,-3.4249,-3.4302,-3.4314,-3.4326,-3.4346,-3.4346,-3.437,-3.4379,-3.4394,-3.4416,-3.4448,-3.447,-3.45,-3.4561,-3.4565,-3.4588,-3.4595,-3.4601,-3.4606,-3.4637,-3.4647,-3.4543,-3.4543,-3.4543,0,0,-3.4217,-3.4237,-3.426,-3.4308,-3.4326,-3.4362,-3.4334,-3.4374,-3.44,-3.4385,-3.4434,-3.4445,-3.447,-3.4526,-3.4551,-3.4537,-3.4636,-3.4606,-3.4611,-3.4613,-3.4643,-3.4652,-3.4661,-3.4546,-3.4546,-3.4545,0,0,-3.4285,-3.4305,-3.435,-3.4369,-3.4398,-3.4405,-3.4416,-3.4442,-3.4449,-3.4499,-3.4487,-3.4518,-3.4574,-3.4592,-3.4608,-3.4682,-3.467,-3.4692,-3.4728,-3.4758,-3.4766,-3.4774,-3.4798,-3.4807,-3.4697,-3.4697,-3.4697,0,-3.4314,-3.437,-3.4374,-3.4415,-3.4435,-3.4424,-3.4468,-3.4486,-3.4523,-3.4536,-3.452,-3.459,-3.4606,-3.4664,-3.4682,-3.4697,-3.4707,-3.4688,-3.4765,-3.4773,-3.4779,-3.4802,-3.4812,-3.47,-3.4699,-3.4699,-3.4699,0,-3.4404,-3.4443,-3.4476,-3.4513,-3.4537,-3.4579,-3.4587,-3.4611,-3.4608,-3.4616,-3.4665,-3.4684,-3.4718,-3.4732,-3.473,-3.479,-3.478,-3.4765,-3.4736,-3.4791,-3.4813,-3.4822,-3.4703,-3.4702,-3.4701,-3.4701,0,0,-3.4489,-3.4528,-3.454,-3.4556,-3.4586,-3.4615,-3.4656,-3.4691,-3.471,-3.4735,-3.4768,-3.4816,-3.4802,-3.482,-3.482,-3.4846,-3.4901,-3.4827,-3.4828,-3.4839,-3.4966,-3.4977,-3.4987,-3.4894,-3.4896,-3.4897,-3.4964,0,-3.4558,-3.4632,-3.4636,-3.4702,-3.4737,-3.4726,-3.4762,-3.4783,-3.4792,-3.4821,-3.483,-3.4863,-3.4843,-3.4853,-3.488,-3.4889,-3.4926,-3.4884,-3.4923,-3.4924,-3.4915,-3.4999,-3.501,-3.5072,-3.4972,-3.4974,-3.4975,0,-3.4649,-3.4678,-3.4748,-3.4773,-3.4787,-3.4819,-3.485,-3.4879,-3.4902,-3.4906,-3.4927,-3.4922,-3.4962,-3.4933,-3.4986,-3.4958,-3.4973,-3.498,-3.4983,-3.4985,-3.4952,-3.5001,-3.5091,-3.51,-3.4989,-3.4988,-3.4987,0,-3.4702,-3.4759,-3.4807,-3.4822,-3.4852,-3.4874,-3.4888,-3.491,-3.4929,-3.4956,-3.4968,-3.4999,-3.5015,-3.5038,-3.504,-3.5019,-3.5094,-3.5065,-3.5096,-3.5096,-3.5111,-3.511,-3.5203,-3.5124,-3.5124,-3.5124,-3.5124,0,-3.4777,-3.482,-3.4832,-3.4861,-3.4908,-3.4911,-3.4957,-3.4968,-3.4988,-3.5018,-3.5011,-3.5039,-3.5042,-3.507,-3.5073,-3.5115,-3.5123,-3.5126,-3.5126,-3.5126,-3.5125,-3.5135,-3.513,-3.5126,-3.5126,-3.5125,-3.5125,0,-3.4844,-3.4854,-3.4906,-3.4931,-3.4938,-3.4971,-3.4991,-3.5018,-3.5026,-3.5064,-3.5073,-3.5085,-3.5118,-3.5124,-3.5162,-3.5164,-3.5214,-3.5211,-3.5207,-3.5206,-3.5236,-3.5233,-3.5338,-3.5351,-3.5265,-3.5266,-3.5267,0,-3.4891,-3.4923,-3.4952,-3.4972,-3.4987,-3.502,-3.5041,-3.5045,-3.5066,-3.5094,-3.5118,-3.5151,-3.5177,-3.523,-3.524,-3.5269,-3.5265,-3.53,-3.5269,-3.5268,-3.5263,-3.5261,-3.5263,-3.5305,-3.5306,-3.5307,-3.5308,0,-3.4972,-3.4975,-3.5006,-3.5038,-3.5063,-3.5088,-3.5112,-3.5129,-3.5135,-3.5159,-3.5194,-3.5214,-3.5254,-3.5285,-3.5314,-3.5326,-3.5317,-3.5317,-3.5326,-3.5325,-3.5321,-3.5322,-3.5221,-3.5315,-3.5314,-3.5313,-3.5313,-3.5313,-3.5029,-3.5057,-3.5081,-3.5115,-3.5134,-3.5156,-3.5182,-3.5194,-3.5223,-3.5257,-3.5257,-3.5294,-3.5315,-3.5353,-3.5366,-3.5394,-3.5383,-3.5395,-3.5398,-3.5401,-3.5403,-3.5318,-3.5399,-3.5399,-3.5399,-3.5399,-3.5399,0,-3.5108,-3.5124,-3.5155,-3.5189,-3.5215,-3.5207,-3.5232,-3.5254,-3.5287,-3.5308,-3.5334,-3.5373,-3.5403,-3.5417,-3.5446,-3.5466,-3.5462,-3.5473,-3.5471,-3.5473,-3.5412,-3.5401,-3.5475,-3.5475,-3.5475,-3.5475,-3.5475,-3.5475,-3.5153,-3.5199,-3.5205,-3.526,-3.5274,-3.5312,-3.5327,-3.5346,-3.5363,-3.5407,-3.5433,-3.5442,-3.5459,-3.5489,-3.5516,-3.5519,-3.5529,-3.5542,-3.5543,-3.5485,-3.5478,-3.547,-3.546,-3.5544,-3.5544,-3.5601,-3.5601,-3.5601]}]]